This is the latest recevied weather packets stored in our database for station/object KB0BS-13. If no packets are shown the sender has not sent any weather packets the latest 10 day(s).
| Time | Temp. | Humidity | Pressure | Rain* | Wind** | Luminosity | Snow |
|---|---|---|---|---|---|---|---|
| 1777246764 | 13.89° C | 51% | 1021.8 hPa | 0 mm | - | 47 W/m² | - |
| 1777246460 | 13.89° C | 55% | 1021.7 hPa | 0 mm | - | 52 W/m² | - |
| 1777246157 | 14.44° C | 50% | 1021.7 hPa | 0 mm | - | 57 W/m² | - |
| 1777245855 | 14.44° C | 52% | 1021.8 hPa | 0 mm | - | 63 W/m² | - |
| 1777245552 | 14.44° C | 50% | 1021.8 hPa | 0 mm | - | 71 W/m² | - |
| 1777245248 | 14.44° C | 50% | 1021.8 hPa | 0 mm | - | 78 W/m² | - |
| 1777244944 | 15° C | 51% | 1021.8 hPa | 0 mm | - | 85 W/m² | - |
| 1777244640 | 15° C | 50% | 1021.9 hPa | 0 mm | - | 98 W/m² | - |
| 1777244336 | 15° C | 49% | 1021.8 hPa | 0 mm | - | 104 W/m² | - |
| 1777244034 | 15° C | 53% | 1021.9 hPa | 0 mm | - | 117 W/m² | - |
| 1777243731 | 15.56° C | 50% | 1021.8 hPa | 0 mm | - | 119 W/m² | - |
| 1777243428 | 15.56° C | 49% | 1021.9 hPa | 0 mm | - | 121 W/m² | - |
| 1777243123 | 15.56° C | 56% | 1022 hPa | 0 mm | - | 122 W/m² | - |
| 1777242820 | 15.56° C | 54% | 1022 hPa | 0 mm | - | 132 W/m² | - |
| 1777242517 | 15.56° C | 54% | 1021.9 hPa | 0 mm | - | 151 W/m² | - |
| 1777242213 | 15.56° C | 54% | 1021.9 hPa | 0 mm | - | 175 W/m² | - |
| 1777241911 | 15.56° C | 57% | 1021.8 hPa | 0 mm | - | 205 W/m² | - |
| 1777241608 | 16.11° C | 56% | 1021.9 hPa | 0 mm | - | 197 W/m² | - |
| 1777241305 | 15.56° C | 58% | 1021.7 hPa | 0 mm | - | 217 W/m² | - |
| 1777241002 | 15.56° C | 56% | 1021.7 hPa | 0 mm | - | 213 W/m² | - |
| 1777240700 | 15.56° C | 56% | 1022.1 hPa | 0 mm | - | 228 W/m² | - |
| 1777240398 | 15.56° C | 60% | 1021.9 hPa | 0 mm | - | 245 W/m² | - |
| 1777240095 | 16.11° C | 56% | 1021.8 hPa | 0 mm | - | 243 W/m² | - |
| 1777239793 | 15.56° C | 57% | 1021.9 hPa | 0 mm | - | 249 W/m² | - |
| 1777239489 | 15.56° C | 57% | 1021.8 hPa | 0 mm | - | 261 W/m² | - |
* Rain latest hour (hover to see other rain measurements)
** Current wind speed in m/s (hover to see current wind gust speed)